Time,TemperatureF,DewpointF,PressureIn,WindDirection,WindDirectionDegrees,WindSpeedMPH,WindSpeedGustMPH,Humidity,HourlyPrecipIn,Conditions,Clouds,dailyrainin,SoftwareType,DateUTC
2013-04-20 00:10:00,49.8,47.9,29.30,West,274,5.0,5.0,93,0.24,,,0.03,Wunderground v.1.15,2013-04-20 04:10:00,
2013-04-20 00:15:00,49.6,47.7,29.29,WNW,293,4.0,5.0,93,0.08,,,0.03,Wunderground v.1.15,2013-04-20 04:15:00,
2013-04-20 00:35:00,49.3,47.4,29.31,West,267,4.0,4.0,93,0.04,,,0.05,Wunderground v.1.15,2013-04-20 04:35:00,
2013-04-20 00:45:00,49.1,47.4,29.31,West,265,2.0,2.0,94,0.04,,,0.05,Wunderground v.1.15,2013-04-20 04:45:00,
2013-04-20 00:55:00,48.9,47.2,29.33,West,275,3.0,7.0,94,0.00,,,0.05,Wunderground v.1.15,2013-04-20 04:55:00,
2013-04-20 01:05:00,48.7,46.8,29.32,WNW,293,4.0,9.0,93,0.00,,,0.05,Wunderground v.1.15,2013-04-20 05:05:00,
2013-04-20 01:20:00,48.1,45.6,29.30,WNW,290,5.0,8.0,91,0.00,,,0.06,Wunderground v.1.15,2013-04-20 05:20:00,
2013-04-20 01:25:00,47.9,45.7,29.29,NNE,14,4.0,8.0,92,0.00,,,0.06,Wunderground v.1.15,2013-04-20 05:25:00,
2013-04-20 01:35:00,45.8,43.3,29.31,ENE,65,6.0,8.0,91,0.00,,,0.07,Wunderground v.1.15,2013-04-20 05:35:00,
2013-04-20 01:45:00,44.1,42.2,29.33,NNE,30,7.0,7.0,93,0.00,,,0.07,Wunderground v.1.15,2013-04-20 05:45:00,
2013-04-20 01:50:00,43.7,41.8,29.33,NNE,32,6.0,7.0,93,0.00,,,0.07,Wunderground v.1.15,2013-04-20 05:50:00,
2013-04-20 01:55:00,43.6,42.0,29.34,NNE,17,5.0,6.0,94,0.00,,,0.08,Wunderground v.1.15,2013-04-20 05:55:00,
2013-04-20 02:05:00,43.3,41.7,29.33,North,360,5.0,5.0,94,0.00,,,0.08,Wunderground v.1.15,2013-04-20 06:05:00,
2013-04-20 02:20:00,43.3,41.7,29.34,NNW,346,2.0,2.0,94,0.00,,,0.09,Wunderground v.1.15,2013-04-20 06:20:00,
2013-04-20 02:25:00,43.3,42.0,29.34,NNW,347,2.0,3.0,95,0.00,,,0.09,Wunderground v.1.15,2013-04-20 06:25:00,
2013-04-20 02:30:00,43.3,42.0,29.34,North,5,2.0,2.0,95,0.00,,,0.09,Wunderground v.1.15,2013-04-20 06:30:00,
2013-04-20 02:35:00,43.3,42.0,29.33,North,10,2.0,2.0,95,0.00,,,0.09,Wunderground v.1.15,2013-04-20 06:35:00,
2013-04-20 02:50:00,43.2,41.9,29.32,NE,34,2.0,2.0,95,0.00,,,0.10,Wunderground v.1.15,2013-04-20 06:50:00,
2013-04-20 02:55:00,43.1,41.8,29.33,North,11,1.0,2.0,95,0.00,,,0.10,Wunderground v.1.15,2013-04-20 06:55:00,
2013-04-20 03:05:00,43.0,41.7,29.33,WNW,296,2.0,2.0,95,0.05,,,0.11,Wunderground v.1.15,2013-04-20 07:05:00,
2013-04-20 03:10:00,42.9,41.6,29.34,WSW,240,1.0,2.0,95,0.05,,,0.11,Wunderground v.1.15,2013-04-20 07:10:00,
2013-04-20 03:25:00,42.7,41.1,29.34,WSW,258,2.0,3.0,94,0.00,,,0.12,Wunderground v.1.15,2013-04-20 07:25:00,
2013-04-20 03:35:00,42.6,41.0,29.34,West,279,2.0,3.0,94,0.00,,,0.12,Wunderground v.1.15,2013-04-20 07:35:00,
2013-04-20 03:40:00,42.5,40.9,29.34,NW,304,2.0,3.0,94,0.04,,,0.13,Wunderground v.1.15,2013-04-20 07:40:00,
2013-04-20 03:55:00,42.0,39.8,29.34,West,275,4.0,5.0,92,0.04,,,0.14,Wunderground v.1.15,2013-04-20 07:55:00,
2013-04-20 04:00:00,41.8,39.4,29.34,West,265,5.0,5.0,91,0.04,,,0.14,Wunderground v.1.15,2013-04-20 08:00:00,
2013-04-20 04:20:00,41.4,39.3,29.34,West,281,2.0,5.0,92,0.00,,,0.15,Wunderground v.1.15,2013-04-20 08:20:00,
2013-04-20 04:25:00,41.1,38.7,29.35,WNW,286,3.0,5.0,91,0.00,,,0.15,Wunderground v.1.15,2013-04-20 08:25:00,
2013-04-20 04:40:00,40.3,37.9,29.34,NW,307,2.0,2.0,91,0.10,,,0.17,Wunderground v.1.15,2013-04-20 08:40:00,
2013-04-20 04:45:00,40.0,37.6,29.34,WNW,297,2.0,4.0,91,0.09,,,0.17,Wunderground v.1.15,2013-04-20 08:45:00,
2013-04-20 04:50:00,39.7,37.3,29.36,West,273,3.0,4.0,91,0.07,,,0.18,Wunderground v.1.15,2013-04-20 08:50:00,
2013-04-20 05:00:00,39.4,37.0,29.37,West,276,7.0,7.0,91,0.06,,,0.19,Wunderground v.1.15,2013-04-20 09:00:00,
2013-04-20 05:05:00,39.1,36.7,29.37,WSW,249,8.0,8.0,91,0.06,,,0.19,Wunderground v.1.15,2013-04-20 09:05:00,
2013-04-20 05:20:00,38.6,36.2,29.36,West,281,5.0,5.0,91,0.00,,,0.19,Wunderground v.1.15,2013-04-20 09:20:00,
2013-04-20 05:25:00,38.6,36.2,29.36,WNW,292,5.0,5.0,91,0.00,,,0.19,Wunderground v.1.15,2013-04-20 09:25:00,
2013-04-20 05:35:00,38.6,35.6,29.37,WNW,282,4.0,4.0,89,0.00,,,0.19,Wunderground v.1.15,2013-04-20 09:35:00,
2013-04-20 05:45:00,38.7,35.7,29.36,West,272,3.0,3.0,89,0.00,,,0.19,Wunderground v.1.15,2013-04-20 09:45:00,
2013-04-20 05:55:00,38.7,35.7,29.36,West,273,2.0,3.0,89,0.00,,,0.20,Wunderground v.1.15,2013-04-20 09:55:00,
2013-04-20 06:05:00,38.7,36.0,29.36,WNW,289,2.0,2.0,90,0.00,,,0.20,Wunderground v.1.15,2013-04-20 10:05:00,
2013-04-20 06:15:00,38.7,36.0,29.36,West,278,3.0,3.0,90,0.00,,,0.20,Wunderground v.1.15,2013-04-20 10:15:00,
2013-04-20 06:20:00,38.7,35.7,29.37,WNW,302,4.0,4.0,89,0.00,,,0.20,Wunderground v.1.15,2013-04-20 10:20:00,
2013-04-20 06:30:00,38.9,35.6,29.37,WNW,283,5.0,5.0,88,0.00,,,0.20,Wunderground v.1.15,2013-04-20 10:30:00,
2013-04-20 06:35:00,38.9,35.6,29.39,WNW,291,5.0,5.0,88,0.00,,,0.20,Wunderground v.1.15,2013-04-20 10:35:00,
2013-04-20 06:40:00,38.9,35.9,29.39,WNW,283,4.0,4.0,89,0.00,,,0.20,Wunderground v.1.15,2013-04-20 10:40:00,
2013-04-20 06:45:00,38.8,35.8,29.39,West,269,3.0,4.0,89,0.00,,,0.20,Wunderground v.1.15,2013-04-20 10:45:00,
2013-04-20 06:55:00,38.9,35.4,29.40,WNW,284,4.0,5.0,87,0.00,,,0.20,Wunderground v.1.15,2013-04-20 10:55:00,
2013-04-20 07:05:00,39.0,35.2,29.41,West,264,5.0,5.0,86,0.00,,,0.20,Wunderground v.1.15,2013-04-20 11:05:00,
2013-04-20 07:15:00,38.9,35.6,29.40,WSW,255,2.0,4.0,88,0.00,,,0.20,Wunderground v.1.15,2013-04-20 11:15:00,
2013-04-20 07:25:00,38.8,35.8,29.41,WSW,249,2.0,2.0,89,0.00,,,0.20,Wunderground v.1.15,2013-04-20 11:25:00,
2013-04-20 07:35:00,38.8,36.4,29.41,WSW,249,1.0,2.0,91,0.00,,,0.20,Wunderground v.1.15,2013-04-20 11:35:00,
2013-04-20 07:45:00,38.7,36.3,29.41,SSW,202,2.0,2.0,91,0.00,,,0.20,Wunderground v.1.15,2013-04-20 11:45:00,
2013-04-20 08:05:00,38.7,36.3,29.42,SW,219,1.0,1.0,91,0.00,,,0.20,Wunderground v.1.15,2013-04-20 12:05:00,
2013-04-20 08:10:00,38.8,36.4,29.41,SW,219,1.0,1.0,91,0.00,,,0.20,Wunderground v.1.15,2013-04-20 12:10:00,
2013-04-20 08:25:00,39.3,35.8,29.41,WSW,240,1.0,2.0,87,0.00,,,0.20,Wunderground v.1.15,2013-04-20 12:25:00,
2013-04-20 08:35:00,39.8,35.1,29.41,NW,304,2.0,5.0,83,0.00,,,0.20,Wunderground v.1.15,2013-04-20 12:35:00,
2013-04-20 08:45:00,40.2,35.8,29.41,WSW,240,3.0,3.0,84,0.00,,,0.20,Wunderground v.1.15,2013-04-20 12:45:00,
2013-04-20 08:50:00,40.3,35.8,29.42,SW,224,3.0,4.0,84,0.00,,,0.20,Wunderground v.1.15,2013-04-20 12:50:00,
2013-04-20 09:00:00,40.6,35.8,29.41,South,181,3.0,3.0,83,0.00,,,0.20,Wunderground v.1.15,2013-04-20 13:00:00,
2013-04-20 09:05:00,40.9,36.7,29.41,SW,217,3.0,3.0,85,0.00,,,0.20,Wunderground v.1.15,2013-04-20 13:05:00,
2013-04-20 09:10:00,41.3,36.5,29.41,SW,217,2.0,2.0,83,0.00,,,0.20,Wunderground v.1.15,2013-04-20 13:10:00,
2013-04-20 09:25:00,41.9,34.9,29.41,WSW,254,6.0,6.0,76,0.00,,,0.20,Wunderground v.1.15,2013-04-20 13:25:00,
2013-04-20 09:35:00,42.1,35.7,29.42,West,261,7.0,7.0,78,0.00,,,0.20,Wunderground v.1.15,2013-04-20 13:35:00,
2013-04-20 09:45:00,42.6,35.2,29.41,WNW,296,6.0,6.0,75,0.00,,,0.20,Wunderground v.1.15,2013-04-20 13:45:00,
2013-04-20 09:55:00,42.8,34.7,29.42,WSW,248,6.0,6.0,73,0.00,,,0.20,Wunderground v.1.15,2013-04-20 13:55:00,
2013-04-20 10:00:00,43.0,34.6,29.42,West,263,6.0,6.0,72,0.00,,,0.20,Wunderground v.1.15,2013-04-20 14:00:00,
2013-04-20 10:15:00,42.4,32.6,29.42,WSW,255,8.0,8.0,68,0.00,,,0.20,Wunderground v.1.15,2013-04-20 14:15:00,
2013-04-20 10:30:00,43.1,32.9,29.43,WNW,296,7.0,7.0,67,0.00,,,0.20,Wunderground v.1.15,2013-04-20 14:30:00,
2013-04-20 10:35:00,43.3,33.4,29.43,WNW,301,5.0,7.0,68,0.00,,,0.20,Wunderground v.1.15,2013-04-20 14:35:00,
2013-04-20 10:45:00,43.3,31.5,29.43,SW,236,8.0,8.0,63,0.00,,,0.20,Wunderground v.1.15,2013-04-20 14:45:00,
2013-04-20 10:55:00,43.1,31.7,29.43,WSW,253,7.0,7.0,64,0.00,,,0.20,Wunderground v.1.15,2013-04-20 14:55:00,
2013-04-20 11:00:00,42.9,31.6,29.43,WNW,298,7.0,7.0,64,0.00,,,0.20,Wunderground v.1.15,2013-04-20 15:00:00,
2013-04-20 11:05:00,43.4,31.6,29.43,WNW,286,6.0,7.0,63,0.00,,,0.20,Wunderground v.1.15,2013-04-20 15:05:00,
2013-04-20 11:10:00,43.8,32.4,29.43,West,269,6.0,7.0,64,0.00,,,0.20,Wunderground v.1.15,2013-04-20 15:10:00,
2013-04-20 11:20:00,45.4,32.7,29.44,WNW,284,8.0,15.0,61,0.00,,,0.20,Wunderground v.1.15,2013-04-20 15:20:00,
2013-04-20 11:35:00,44.2,30.3,29.44,West,263,8.0,8.0,58,0.00,,,0.20,Wunderground v.1.15,2013-04-20 15:35:00,
2013-04-20 11:45:00,43.9,30.9,29.45,West,262,9.0,9.0,60,0.00,,,0.20,Wunderground v.1.15,2013-04-20 15:45:00,
2013-04-20 12:00:00,44.5,30.6,29.45,SW,228,9.0,9.0,58,0.00,,,0.20,Wunderground v.1.15,2013-04-20 16:00:00,
2013-04-20 12:05:00,44.6,29.0,29.45,WSW,252,10.0,10.0,54,0.00,,,0.20,Wunderground v.1.15,2013-04-20 16:05:00,
2013-04-20 12:25:00,45.0,28.9,29.47,WSW,247,10.0,10.0,53,0.00,,,0.20,Wunderground v.1.15,2013-04-20 16:25:00,
2013-04-20 12:30:00,45.2,30.0,29.47,WSW,237,8.0,10.0,55,0.00,,,0.20,Wunderground v.1.15,2013-04-20 16:30:00,
2013-04-20 12:40:00,44.8,29.2,29.47,WSW,255,10.0,10.0,54,0.00,,,0.20,Wunderground v.1.15,2013-04-20 16:40:00,
2013-04-20 12:45:00,45.0,28.9,29.47,WSW,252,10.0,10.0,53,0.00,,,0.20,Wunderground v.1.15,2013-04-20 16:45:00,
2013-04-20 13:05:00,45.1,28.0,29.48,WNW,290,10.0,12.0,51,0.00,,,0.20,Wunderground v.1.15,2013-04-20 17:05:00,
2013-04-20 13:10:00,44.6,27.1,29.48,WNW,287,11.0,13.0,50,0.00,,,0.20,Wunderground v.1.15,2013-04-20 17:10:00,
2013-04-20 13:15:00,44.7,27.7,29.49,WNW,285,11.0,11.0,51,0.00,,,0.20,Wunderground v.1.15,2013-04-20 17:15:00,
2013-04-20 13:25:00,45.7,29.5,29.49,SW,235,8.0,8.0,53,0.00,,,0.20,Wunderground v.1.15,2013-04-20 17:25:00,
2013-04-20 13:35:00,46.1,28.5,29.49,SW,234,10.0,10.0,50,0.00,,,0.20,Wunderground v.1.15,2013-04-20 17:35:00,
2013-04-20 13:45:00,45.9,28.3,29.49,WSW,256,10.0,10.0,50,0.00,,,0.20,Wunderground v.1.15,2013-04-20 17:45:00,
2013-04-20 14:00:00,46.3,27.7,29.50,WNW,289,10.0,10.0,48,0.00,,,0.20,Wunderground v.1.15,2013-04-20 18:00:00,
2013-04-20 14:05:00,46.0,28.4,29.50,WNW,294,9.0,10.0,50,0.00,,,0.20,Wunderground v.1.15,2013-04-20 18:05:00,
2013-04-20 14:10:00,45.8,27.7,29.50,WSW,244,8.0,9.0,49,0.00,,,0.20,Wunderground v.1.15,2013-04-20 18:10:00,
2013-04-20 14:20:00,46.3,27.2,29.51,SW,232,9.0,9.0,47,0.00,,,0.20,Wunderground v.1.15,2013-04-20 18:20:00,
2013-04-20 14:30:00,46.0,26.9,29.51,WSW,242,8.0,14.0,47,0.00,,,0.20,Wunderground v.1.15,2013-04-20 18:30:00,
2013-04-20 14:45:00,45.5,27.4,29.51,WSW,244,8.0,8.0,49,0.00,,,0.20,Wunderground v.1.15,2013-04-20 18:45:00,
2013-04-20 14:55:00,45.6,26.5,29.52,West,263,8.0,14.0,47,0.00,,,0.20,Wunderground v.1.15,2013-04-20 18:55:00,
2013-04-20 15:00:00,45.6,26.0,29.52,West,279,10.0,10.0,46,0.00,,,0.20,Wunderground v.1.15,2013-04-20 19:00:00,
2013-04-20 15:10:00,45.8,25.6,29.52,SW,229,6.0,23.0,45,0.00,,,0.20,Wunderground v.1.15,2013-04-20 19:10:00,
2013-04-20 15:15:00,45.8,25.1,29.53,West,264,8.0,8.0,44,0.00,,,0.20,Wunderground v.1.15,2013-04-20 19:15:00,
2013-04-20 15:25:00,46.3,26.6,29.53,West,280,8.0,14.0,46,0.00,,,0.20,Wunderground v.1.15,2013-04-20 19:25:00,
2013-04-20 15:30:00,46.6,25.3,29.53,West,273,9.0,14.0,43,0.00,,,0.20,Wunderground v.1.15,2013-04-20 19:30:00,
2013-04-20 15:50:00,46.4,26.2,29.55,West,268,12.0,12.0,45,0.00,,,0.20,Wunderground v.1.15,2013-04-20 19:50:00,
2013-04-20 15:55:00,45.8,26.7,29.55,WNW,283,12.0,13.0,47,0.00,,,0.20,Wunderground v.1.15,2013-04-20 19:55:00,
2013-04-20 16:05:00,46.5,27.8,29.55,West,269,13.0,14.0,48,0.00,,,0.20,Wunderground v.1.15,2013-04-20 20:05:00,
2013-04-20 16:15:00,45.3,26.7,29.56,WNW,287,12.0,12.0,48,0.00,,,0.20,Wunderground v.1.15,2013-04-20 20:15:00,
2013-04-20 16:35:00,46.0,27.4,29.58,West,277,8.0,8.0,48,0.00,,,0.20,Wunderground v.1.15,2013-04-20 20:35:00,
2013-04-20 16:45:00,45.2,26.1,29.58,SW,223,10.0,10.0,47,0.00,,,0.20,Wunderground v.1.15,2013-04-20 20:45:00,
2013-04-20 17:05:00,44.1,23.6,29.59,WNW,282,12.0,12.0,44,0.00,,,0.20,Wunderground v.1.15,2013-04-20 21:05:00,
2013-04-20 17:10:00,44.2,24.7,29.60,WSW,254,11.0,12.0,46,0.00,,,0.20,Wunderground v.1.15,2013-04-20 21:10:00,
2013-04-20 17:20:00,44.0,25.5,29.61,West,279,8.0,12.0,48,0.00,,,0.20,Wunderground v.1.15,2013-04-20 21:20:00,
2013-04-20 17:35:00,43.4,24.5,29.62,WSW,240,9.0,11.0,47,0.00,,,0.20,Wunderground v.1.15,2013-04-20 21:35:00,
2013-04-20 17:50:00,42.0,25.2,29.64,NW,308,12.0,12.0,51,0.00,,,0.20,Wunderground v.1.15,2013-04-20 21:50:00,
2013-04-20 17:55:00,41.7,24.9,29.64,WNW,292,10.0,12.0,51,0.00,,,0.20,Wunderground v.1.15,2013-04-20 21:55:00,
2013-04-20 18:05:00,41.6,25.3,29.65,WNW,289,7.0,7.0,52,0.00,,,0.20,Wunderground v.1.15,2013-04-20 22:05:00,
2013-04-20 18:10:00,41.5,25.6,29.65,West,280,6.0,9.0,53,0.00,,,0.20,Wunderground v.1.15,2013-04-20 22:10:00,
2013-04-20 18:25:00,41.4,24.1,29.66,West,274,7.0,12.0,50,0.00,,,0.20,Wunderground v.1.15,2013-04-20 22:25:00,
2013-04-20 18:45:00,40.6,23.9,29.68,West,269,10.0,10.0,51,0.00,,,0.20,Wunderground v.1.15,2013-04-20 22:45:00,
2013-04-20 19:05:00,40.1,23.9,29.69,WNW,291,8.0,8.0,52,0.00,,,0.20,Wunderground v.1.15,2013-04-20 23:05:00,
2013-04-20 19:10:00,40.0,24.2,29.69,WSW,240,8.0,8.0,53,0.00,,,0.20,Wunderground v.1.15,2013-04-20 23:10:00,
2013-04-20 19:20:00,39.5,22.8,29.70,SW,229,10.0,11.0,51,0.00,,,0.20,Wunderground v.1.15,2013-04-20 23:20:00,
2013-04-20 19:25:00,39.2,23.0,29.70,WSW,240,11.0,13.0,52,0.00,,,0.20,Wunderground v.1.15,2013-04-20 23:25:00,
2013-04-20 19:35:00,39.2,22.6,29.72,West,265,13.0,13.0,51,0.00,,,0.20,Wunderground v.1.15,2013-04-20 23:35:00,
2013-04-20 19:40:00,39.1,22.9,29.73,SW,232,11.0,11.0,52,0.00,,,0.20,Wunderground v.1.15,2013-04-20 23:40:00,
2013-04-20 19:50:00,38.8,24.0,29.73,West,268,9.0,9.0,55,0.00,,,0.20,Wunderground v.1.15,2013-04-20 23:50:00,
2013-04-20 19:55:00,38.7,23.5,29.74,WNW,284,8.0,9.0,54,0.00,,,0.20,Wunderground v.1.15,2013-04-20 23:55:00,
2013-04-20 20:00:00,38.5,21.9,29.74,West,269,8.0,17.0,51,0.00,,,0.20,Wunderground v.1.15,2013-04-21 00:00:00,
2013-04-20 20:10:00,38.0,21.5,29.75,NW,307,11.0,11.0,51,0.00,,,0.20,Wunderground v.1.15,2013-04-21 00:10:00,
2013-04-20 20:15:00,37.9,21.4,29.76,WNW,289,10.0,15.0,51,0.00,,,0.20,Wunderground v.1.15,2013-04-21 00:15:00,
2013-04-20 20:20:00,37.7,21.6,29.76,West,263,11.0,11.0,52,0.00,,,0.20,Wunderground v.1.15,2013-04-21 00:20:00,
2013-04-20 20:25:00,37.5,21.5,29.77,West,275,10.0,11.0,52,0.00,,,0.20,Wunderground v.1.15,2013-04-21 00:25:00,
2013-04-20 20:35:00,37.2,21.6,29.78,WNW,292,7.0,9.0,53,0.00,,,0.20,Wunderground v.1.15,2013-04-21 00:35:00,
2013-04-20 20:40:00,37.0,21.4,29.79,WNW,296,8.0,9.0,53,0.00,,,0.20,Wunderground v.1.15,2013-04-21 00:40:00,
2013-04-20 20:45:00,36.9,20.9,29.79,West,273,9.0,10.0,52,0.00,,,0.20,Wunderground v.1.15,2013-04-21 00:45:00,
2013-04-20 20:55:00,36.6,20.6,29.80,WNW,296,9.0,9.0,52,0.00,,,0.20,Wunderground v.1.15,2013-04-21 00:55:00,
2013-04-20 21:10:00,36.4,20.9,29.81,West,274,9.0,9.0,53,0.00,,,0.20,Wunderground v.1.15,2013-04-21 01:10:00,
2013-04-20 21:15:00,36.1,20.6,29.81,WNW,300,10.0,18.0,53,0.00,,,0.20,Wunderground v.1.15,2013-04-21 01:15:00,
2013-04-20 21:20:00,36.0,20.5,29.82,West,273,11.0,11.0,53,0.00,,,0.20,Wunderground v.1.15,2013-04-21 01:20:00,
2013-04-20 21:25:00,35.8,20.3,29.82,West,264,11.0,11.0,53,0.00,,,0.20,Wunderground v.1.15,2013-04-21 01:25:00,
2013-04-20 21:35:00,35.6,20.6,29.83,NW,323,10.0,10.0,54,0.00,,,0.20,Wunderground v.1.15,2013-04-21 01:35:00,
2013-04-20 21:45:00,35.4,21.2,29.84,NW,304,7.0,12.0,56,0.00,,,0.20,Wunderground v.1.15,2013-04-21 01:45:00,
2013-04-20 21:55:00,35.2,21.1,29.84,SW,234,7.0,12.0,56,0.00,,,0.20,Wunderground v.1.15,2013-04-21 01:55:00,
2013-04-20 22:00:00,35.0,20.9,29.84,WNW,291,6.0,6.0,56,0.00,,,0.20,Wunderground v.1.15,2013-04-21 02:00:00,
2013-04-20 22:10:00,34.8,20.3,29.85,NW,311,7.0,10.0,55,0.00,,,0.20,Wunderground v.1.15,2013-04-21 02:10:00,
2013-04-20 22:20:00,34.5,19.5,29.85,WNW,283,10.0,10.0,54,0.00,,,0.20,Wunderground v.1.15,2013-04-21 02:20:00,
2013-04-20 22:25:00,34.4,19.5,29.86,West,274,11.0,11.0,54,0.00,,,0.20,Wunderground v.1.15,2013-04-21 02:25:00,
2013-04-20 22:40:00,34.1,18.7,29.86,West,269,11.0,13.0,53,0.00,,,0.20,Wunderground v.1.15,2013-04-21 02:40:00,
2013-04-20 22:50:00,33.9,18.6,29.87,West,263,9.0,9.0,53,0.00,,,0.20,Wunderground v.1.15,2013-04-21 02:50:00,
2013-04-20 22:55:00,33.7,18.4,29.87,WNW,285,9.0,9.0,53,0.00,,,0.20,Wunderground v.1.15,2013-04-21 02:55:00,
2013-04-20 23:00:00,33.6,18.3,29.87,West,279,8.0,13.0,53,0.00,,,0.20,Wunderground v.1.15,2013-04-21 03:00:00,
2013-04-20 23:15:00,33.3,18.9,29.88,WSW,254,9.0,9.0,55,0.00,,,0.20,Wunderground v.1.15,2013-04-21 03:15:00,
2013-04-20 23:30:00,32.6,21.0,29.90,WNW,288,11.0,12.0,62,0.00,,,0.20,Wunderground v.1.15,2013-04-21 03:30:00,
2013-04-20 23:45:00,32.0,21.2,29.91,West,265,8.0,8.0,64,0.00,,,0.20,Wunderground v.1.15,2013-04-21 03:45:00,
2013-04-20 23:55:00,31.7,20.5,29.92,WNW,288,9.0,13.0,63,0.00,,,0.20,Wunderground v.1.15,2013-04-21 03:55:00,